User: anonymous   Login
Location: Vancouver
(49.2500°N, 123.1330°W)
Time: 14:02:10
(UTC-07:00)
Language:

YAOGAN 6 - Orbit

View from above orbital plane
View from above orbital plane
View from above satellite
View from above satellite

Ground track
Ground track

The orbit data is extracted from the following two-line orbital elements,

1 34839U 09021A   15109.44664249  .00005918  00000-0  25355-3 0  9990
2 34839 097.2481 179.6097 0029692 233.4334 255.3955 15.22735330332260
Epoch (UTC): 19 April 2015 10:43:09
Eccentricity: 0.0029692
inclination: 97.2481°
perigee height: 477 km
apogee height: 518 km
right ascension of ascending node: 179.6097°
argument of perigee: 233.4334°
revolutions per day: 15.22735330
mean anomaly at epoch: 255.3955°
orbit number at epoch: 33226

The dashed part of the orbit path shows where the satellite is in the earth's shadow,  

DLR